Weather observations for the past three days for
St. Petersburg/Clearwater Airport
Imperial (Metric)
Date Time (edt) Wind (mph) Vis. (mi.) Weather Sky Cond. Temperature (ºF) Relative Humidity Wind Chill (°F) Heat Index (°F) Pressure Precipitation (in)
Air Dwpt 6 hour altimeter (in) sea level (mb) 1 hr 3 hr 6 hr
Max. Min.
21 07:53 SE 5 10.00 Partly Cloudy SCT034 82 75.9 82 79 82% 89 30.08 1018.5
21 06:53 SE 3 10.00 Fair CLR 80.1 75 85% 85 30.07 1018.1
21 05:53 SE 7 10.00 Fair CLR 80.1 75 85% 85 30.04 1017.3
21 04:53 S 3 10.00 Fair CLR 80.1 75.9 87% 85 30.05 1017.4
21 03:53 NE 3 10.00 Fair CLR 79 75.9 90% 83 30.05 1017.6
21 02:53 S 3 10.00 Fair CLR 81 75 82% 87 30.06 1018.0
21 01:53 Calm 10.00 Fair CLR 81 75 89.1 80.1 82% 87 30.09 1018.8
21 00:53 SE 6 10.00 Fair CLR 81 75 82% 87 30.11 1019.7
20 23:53 SE 7 10.00 Fair CLR 82 75 79% 89 30.13 1020.3
20 22:53 E 6 10.00 Fair CLR 82.9 75 77% 90 30.12 1020.0
20 21:53 E 6 10.00 Fair CLR 82 75 79% 89 30.11 1019.6
20 20:53 SE 10 10.00 Thunderstorm in Vicinity BKN032 82.9 75 77% 90 30.1 1019.1
20 19:53 SW 6 10.00 Fair CLR 89.1 75 91.9 87.1 63% 99 30.07 1018.2
20 18:53 SW 8 10.00 A Few Clouds FEW037 91.9 77 62% 106 30.07 1018.2
20 17:53 SW 10 10.00 Fair CLR 91.9 75.9 60% 104 30.07 1018.2
20 16:53 SW 9 G 17 10.00 Fair CLR 91.9 79 66% 109 30.07 1018.1
20 15:53 SW 12 G 18 10.00 Thunderstorm in Vicinity SCT034 91 78.1 66% 106 30.07 1018.3
20 14:53 Vrbl 5 10.00 Thunderstorm BKN038 89.1 75 63% 99 30.09 1018.7
20 13:53 S 6 10.00 Mostly Cloudy BKN040 BKN048 BKN060 91.9 75.9 93.9 82 60% 104 30.1 1019.3
20 12:53 S 12 10.00 Partly Cloudy SCT037 SCT065 91 77 64% 105 30.11 1019.7
20 11:53 S 9 10.00 Partly Cloudy FEW034 SCT045 91.9 78.1 64% 107 30.11 1019.7
20 10:53 E 9 10.00 Partly Cloudy SCT037 89.1 79 72% 105 30.11 1019.4
20 09:53 S 5 10.00 Fair CLR 89.1 77 68% 102 30.1 1019.1
20 08:53 SE 8 10.00 Fair CLR 84.9 78.1 80% 97 30.1 1019.2
20 07:53 SE 7 10.00 Fair CLR 82 78.1 82 79 88% 91 30.09 1018.7
20 06:53 SE 5 10.00 Fair CLR 80.1 77 90% 86 30.07 1018.3
20 05:53 SE 7 10.00 Fair CLR 81 77 88% 88 30.07 1018.2
20 04:53 SE 6 10.00 Fair CLR 80.1 77 90% 86 30.05 1017.6
20 03:53 SE 6 10.00 Fair CLR 81 77 88% 88 30.06 1017.7
20 02:53 Calm 10.00 Fair CLR 79 75.9 90% 83 30.08 1018.4
20 01:53 SE 8 10.00 Fair CLR 80.1 75 86 80.1 85% 85 30.09 1018.7
20 00:53 E 5 10.00 Partly Cloudy SCT050 82 75 79% 89 30.11 1019.6
19 23:53 SE 6 10.00 Fair CLR 81 75.9 85% 87 30.1 1019.2
19 22:53 SE 6 10.00 Fair CLR 81 75.9 85% 87 30.09 1018.7
19 21:53 E 6 10.00 Mostly Cloudy FEW028 BKN036 82.9 75 77% 90 30.08 1018.6
19 20:53 E 13 G 21 10.00 Partly Cloudy SCT028 82.9 75 77% 90 30.08 1018.5
19 19:53 NW 5 10.00 Fair CLR 86 78.1 93 82 77% 98 30.05 1017.6 0.74
19 18:53 NW 10 10.00 Thunderstorm in Vicinity FEW040 87.1 78.1 75% 100 30.04 1017.1
19 17:53 W 5 10.00 Thunderstorm in Vicinity FEW050 84.9 78.1 80% 97 30.03 1016.9 0.42
19 16:53 SW 13 10.00 Thunderstorm Rain SCT050 BKN070 OVC090 84 78.1 82% 95 30.03 1016.9 0.32 0.32
19 15:53 NE 6 10.00 A Few Clouds FEW045 91.9 75.9 60% 104 30.04 1017.2
19 14:53 NW 14 10.00 A Few Clouds FEW055 90 75.9 63% 102 30.06 1018.0
19 13:53 S 6 10.00 Thunderstorm in Vicinity SCT043 BKN050 BKN075 91 75 91.9 81 59% 102 30.08 1018.7
19 12:53 Calm 10.00 Mostly Cloudy SCT039 BKN050 91 75.9 61% 103 30.09 1018.8
19 11:53 Vrbl 7 10.00 Mostly Cloudy SCT036 BKN043 BKN050 91 77 64% 105 30.09 1019.0
19 10:53 Vrbl 6 10.00 Fair CLR 90 77 66% 103 30.09 1018.8
19 09:53 SE 8 10.00 Fair CLR 87.1 78.1 75% 100 30.08 1018.7
19 08:53 SE 6 10.00 Fair CLR 84 78.1 82% 95 30.08 1018.5
19 07:53 Vrbl 6 10.00 Fair CLR 81 77 81 77 88% 88 30.07 1018.1
19 06:53 Calm 10.00 Fair CLR 79 75 88% 83 30.05 1017.6
19 05:53 Calm 10.00 Fair CLR 78.1 75 90% 81 30.04 1017.2
19 04:53 SE 5 10.00 Fair CLR 79 75 88% 83 30.02 1016.7
19 03:53 SE 3 10.00 Fair CLR 79 75 88% 83 30.02 1016.7
19 02:53 S 5 10.00 Fair CLR 79 73.9 85% 83 30.04 1017.3
19 01:53 S 3 10.00 Fair CLR 79 73.9 86 78.1 85% 83 30.05 1017.5 0.29
19 00:53 SE 3 10.00 Fair CLR 79 75.9 90% 83 30.07 1018.1
18 23:53 SE 6 10.00 Fair CLR 79 75 88% 83 30.08 1018.5
18 22:53 E 3 10.00 Fair CLR 79 75.9 90% 83 30.07 1018.2 0.29
18 21:53 NE 7 10.00 Fair CLR 80.1 75 85% 85 30.06 1017.8
18 20:53 Vrbl 3 10.00 Partly Cloudy FEW090 SCT110 79 75.9 90% 83 30.04 1017.2 0.29
18 19:53 SE 6 10.00 Thunderstorm in Vicinity BKN033 BKN055 86 73 93.9 82.9 65% 93 30.04 1017.1 0.06
18 18:53 W 5 10.00 Fair CLR 91 75.9 61% 103 30.01 1016.3
18 17:53 W 8 10.00 Fair CLR 91 75 59% 102 30.02 1016.5
18 16:53 NW 8 10.00 Fair CLR 91 77 64% 105 30.02 1016.6 0.06
18 15:53 W 6 10.00 Fair CLR 89.1 79 72% 105 30.03 1017.0 0.06
18 14:53 S 13 7.00 Thunderstorm in Vicinity SCT035 BKN045 86 79 80% 100 30.05 1017.6
18 13:53 NE 5 10.00 Mostly Cloudy SCT035 BKN065 93 72 93.9 81 50% 101 30.06 1017.7
18 12:53 NE 6 10.00 Fair CLR 90 75.9 63% 102 30.08 1018.4
18 11:53 NE 7 10.00 A Few Clouds FEW047 89.1 78.1 70% 103 30.09 1018.9
18 10:53 NE 7 10.00 Mostly Cloudy FEW048 BKN070 89.1 79 72% 105 30.1 1019.4
18 09:53 S 3 10.00 Fair CLR 87.1 75.9 70% 98 30.09 1018.9
18 08:53 SE 9 10.00 Fair CLR 84.9 78.1 80% 97 30.08 1018.6
Date Time (edt) Wind (mph) Vis. (mi.) Weather Sky Cond. Air Dwpt Max. Min. Relative Humidity Wind Chill (°F) Heat Index (°F) altimeter (in) sea level (mb) 1 hr 3 hr 6 hr
6 hour
Temperature (ºF) Pressure Precipitation (in)